Wind_Speed
37 38 40 40 41 42 42 43 44 46 46 46 46 47 48 49 49 49 49 49 48 48 49 50 51 51 51 51 52 53 54 54 55 56 57 57 57 57
39 40 41 41 41 42 43 44 45 46 46 46 47 48 48 49 49 49 49 49 50 50 50 52 53 53 53 53 54 55 56 57 58 58 58 59 59 60
39 40 41 41 41 42 44 44 44 46 47 47 48 49 49 49 50 50 51 51 52 52 52 53 54 54 54 55 56 57 58 59 59 59 59 60 60 59
38 39 40 42 41 42 44 44 45 45 47 48 49 50 49 50 50 51 52 52 53 54 54 54 55 56 56 57 58 59 60 61 61 61 60 60 59 59
36 37 39 41 41 42 42 43 44 45 47 48 48 49 49 50 51 51 52 53 54 55 55 56 56 57 58 59 59 60 61 61 60 59 59 59 59 59
36 37 39 40 41 41 41 42 43 44 45 46 47 47 48 49 50 51 52 53 54 54 55 57 57 59 59 59 58 58 58 58 58 58 58 58 58 59
36 36 37 38 39 39 40 41 42 43 44 45 46 47 48 48 49 50 51 53 53 54 55 55 56 57 57 57 56 56 57 57 57 56 56 55 56 56
34 34 35 36 38 39 40 41 42 43 43 44 45 46 47 48 49 50 51 52 52 52 53 53 54 55 55 55 55 55 55 55 54 54 54 54 55 55
33 33 34 35 37 39 40 41 42 43 44 44 45 46 47 48 49 50 51 51 50 51 52 51 52 53 54 54 53 54 54 53 53 52 53 53 53 53
33 34 34 35 36 38 40 40 40 41 43 44 44 45 46 46 48 48 49 49 48 49 49 49 49 51 51 52 51 51 51 51 51 52 51 51 51 50
34 35 36 36 36 37 39 40 41 42 43 45 45 45 45 45 46 46 47 48 47 47 48 48 48 48 48 49 49 48 48 49 49 50 49 48 48 48
34 35 35 36 36 37 39 40 41 42 44 45 45 45 45 45 46 46 47 47 47 46 46 47 47 46 45 46 47 46 46 46 46 46 46 47 47 46
34 35 36 36 37 38 39 40 41 42 42 43 43 43 44 44 45 46 46 46 45 45 45 44 44 45 45 44 44 44 43 43 43 43 44 45 44 44
35 35 36 36 36 37 38 39 40 40 40 41 41 42 42 43 43 43 44 44 44 44 44 44 43 42 42 42 41 41 42 41 41 42 42 42 41 40
34 35 35 36 36 36 37 38 39 39 40 40 40 41 41 41 41 41 42 43 43 43 42 41 40 40 40 39 39 39 39 39 40 39 39 39 38 37
33 33 34 34 35 36 36 37 38 38 38 39 39 40 40 39 39 39 40 40 40 40 39 39 38 38 38 39 39 39 39 38 38 37 37 36 35 35
32 32 33 33 34 35 36 37 37 37 37 37 38 38 38 38 39 38 38 39 38 38 38 38 37 38 38 38 38 38 38 38 38 37 36 35 35 35
32 32 33 33 34 35 35 35 36 36 36 36 37 37 37 37 37 37 38 38 37 37 37 37 37 38 37 37 37 37 37 36 36 36 35 35 35 35
31 32 33 33 34 35 35 35 35 35 35 35 36 36 36 36 36 36 36 37 36 35 35 36 36 36 36 35 35 36 35 34 33 33 34 33 33 33
32 32 33 34 35 35 35 35 35 34 35 35 36 35 35 35 35 35 36 36 35 35 35 34 34 34 34 33 33 32 32 32 31 31 31 31 30 29
32 33 34 35 35 35 34 34 34 34 34 34 34 34 34 34 34 34 33 34 34 33 33 32 32 32 32 30 29 29 30 30 29 29 29 28 27 27
32 33 34 34 34 34 34 34 34 33 33 33 34 33 33 32 32 32 32 31 31 31 30 30 30 30 30 29 28 28 28 28 28 27 27 27 26 26
32 33 33 33 33 34 33 33 33 33 33 33 32 31 31 31 31 30 30 30 30 29 28 28 28 28 28 28 28 27 27 27 27 27 27 26 26 26
Wind_Direction
262 262 261 259 258 257 256 256 256 256 257 258 259 261 263 264 265 266 266 267 267 268 269 269 269 268 269 271 272 272 272 273 273 273 274 274 274 275
263 263 262 261 259 258 258 257 258 259 259 259 260 261 262 263 265 266 266 267 268 269 270 270 270 270 270 271 272 272 272 273 274 274 274 275 275 275
265 264 263 263 262 261 260 260 261 261 261 261 261 261 262 263 265 265 266 268 268 270 271 271 271 271 271 272 272 273 273 274 275 275 274 275 275 275
266 265 264 263 262 262 262 262 262 264 264 264 263 263 264 264 265 266 268 269 270 271 272 272 272 271 271 272 272 273 274 275 276 276 275 274 274 273
269 267 265 263 262 262 263 263 263 265 265 264 264 265 265 266 267 268 270 270 272 272 273 273 272 272 272 273 273 274 274 275 276 276 275 275 274 274
269 268 267 265 262 263 264 264 265 266 266 266 266 267 269 269 270 271 271 272 273 274 275 274 274 274 273 274 274 274 275 275 275 276 276 275 274 274
271 270 268 265 264 264 264 265 267 268 269 268 268 269 271 271 272 273 273 274 274 275 275 275 276 275 274 274 274 274 275 275 275 276 276 275 274 274
271 270 270 267 265 265 267 267 268 269 271 271 271 271 273 273 273 274 275 275 275 276 275 275 276 275 274 274 274 274 275 275 275 276 276 276 276 275
270 270 270 269 268 267 269 270 271 272 273 273 273 274 275 274 274 274 275 275 276 276 275 275 275 276 275 274 274 274 275 276 275 276 278 278 277 276
271 270 270 271 271 271 271 272 274 276 275 276 276 277 276 275 275 275 276 276 276 277 277 277 277 277 275 275 275 275 275 276 276 276 278 278 277 276
271 271 271 272 273 274 274 274 275 276 276 277 277 277 276 276 276 277 278 279 279 279 279 279 279 278 277 276 277 277 278 278 277 277 277 277 277 277
273 273 274 274 274 277 277 277 276 277 277 277 277 276 276 276 276 278 278 279 280 279 279 279 279 278 276 276 278 278 278 279 279 278 277 278 278 279
275 276 275 276 277 278 279 280 279 278 279 278 277 277 277 277 277 278 278 279 280 280 280 281 280 279 278 277 277 278 278 278 279 280 280 280 280 280
276 276 276 276 277 279 281 282 281 281 281 280 279 279 279 279 278 278 279 280 280 280 281 281 280 279 278 278 277 277 278 279 280 281 281 281 281 281
277 276 276 276 278 280 283 283 283 283 283 282 281 280 280 280 279 279 279 281 281 282 282 280 280 280 279 278 277 277 278 279 281 282 281 281 281 280
278 278 277 278 279 282 284 285 285 284 284 283 282 282 281 281 281 280 281 281 281 281 281 280 281 280 280 279 279 279 279 279 280 281 281 280 280 280
278 277 277 279 281 283 286 286 287 286 285 284 284 284 282 282 282 282 282 282 282 282 281 280 280 281 280 278 279 279 279 279 279 279 279 279 278 278
277 277 278 280 283 285 287 287 287 286 286 285 285 285 284 283 283 283 282 282 283 282 281 280 280 281 281 280 280 280 279 278 278 278 278 278 278 278
278 279 280 282 284 286 287 287 287 286 285 286 286 286 286 285 284 284 284 284 282 281 282 281 280 281 281 280 279 279 279 278 278 277 277 278 278 277
277 279 281 282 284 286 287 287 286 285 285 286 287 288 287 287 287 286 285 284 282 281 282 282 281 281 281 280 278 278 280 279 278 277 277 278 278 277
277 280 282 283 284 286 287 286 285 285 285 286 287 288 287 287 288 288 286 285 283 282 282 282 281 281 281 280 279 278 278 279 278 278 278 278 277 277
279 281 282 283 284 285 285 284 284 284 285 286 287 287 288 288 289 289 288 287 285 283 282 281 280 280 280 280 279 278 277 276 277 279 279 279 278 278
280 281 282 284 285 285 285 284 283 284 285 286 286 287 288 289 290 290 288 287 286 284 282 281 281 280 280 280 279 278 277 276 276 278 279 279 279 280
Height
5672 5673 5674 5676 5678 5679 5680 5682 5684 5686 5688 5689 5690 5690 5690 5690 5690 5690 5691 5691 5690 5690 5689 5689 5688 5688 5688 5688 5687 5686 5686 5685 5684 5683 5681 5680 5679 5677
5662 5662 5663 5665 5667 5668 5669 5670 5672 5673 5675 5677 5677 5677 5677 5677 5677 5678 5678 5678 5677 5677 5676 5675 5674 5673 5673 5673 5672 5671 5670 5669 5667 5666 5665 5663 5662 5660
5651 5651 5653 5654 5655 5656 5657 5658 5660 5661 5662 5664 5664 5664 5664 5665 5664 5664 5664 5664 5663 5662 5661 5660 5659 5658 5658 5657 5656 5655 5653 5652 5650 5649 5647 5646 5644 5643
5641 5641 5642 5643 5644 5645 5646 5647 5647 5648 5649 5650 5651 5651 5651 5651 5651 5651 5650 5650 5649 5648 5646 5645 5644 5643 5642 5640 5639 5637 5636 5634 5632 5630 5629 5628 5626 5625
5630 5630 5631 5631 5632 5633 5634 5634 5635 5636 5636 5637 5638 5638 5637 5637 5637 5637 5636 5635 5634 5632 5630 5629 5628 5626 5625 5623 5621 5619 5618 5616 5614 5612 5610 5609 5608 5607
5620 5620 5620 5620 5620 5621 5622 5623 5623 5623 5623 5623 5624 5624 5624 5623 5623 5623 5622 5620 5618 5616 5614 5613 5611 5609 5608 5606 5604 5602 5600 5597 5596 5594 5592 5591 5589 5588
5610 5609 5609 5609 5609 5610 5611 5612 5612 5612 5611 5611 5611 5611 5610 5609 5609 5608 5607 5605 5604 5601 5599 5597 5595 5593 5590 5588 5586 5585 5583 5581 5579 5577 5575 5573 5572 5570
5600 5600 5599 5599 5599 5600 5600 5600 5601 5600 5600 5599 5599 5598 5597 5596 5594 5593 5591 5590 5590 5588 5584 5582 5579 5577 5575 5573 5571 5569 5567 5565 5563 5561 5559 5557 5555 5554
5590 5590 5590 5589 5589 5589 5589 5589 5589 5588 5588 5587 5586 5585 5584 5582 5581 5580 5577 5575 5573 5571 5568 5568 5564 5561 5559 5556 5555 5553 5551 5549 5547 5545 5544 5542 5540 5538
5580 5580 5580 5579 5579 5578 5578 5578 5577 5576 5575 5575 5574 5572 5570 5568 5566 5565 5563 5561 5559 5556 5553 5553 5550 5547 5543 5541 5539 5538 5536 5534 5532 5530 5528 5526 5525 5523
5570 5570 5570 5569 5568 5568 5567 5567 5565 5564 5562 5561 5559 5558 5556 5554 5553 5551 5549 5547 5546 5544 5540 5538 5536 5534 5531 5527 5525 5523 5521 5520 5518 5516 5514 5512 5511 5509
5560 5560 5559 5558 5557 5556 5556 5555 5553 5552 5550 5548 5546 5544 5542 5540 5539 5537 5536 5534 5532 5530 5527 5525 5522 5520 5519 5516 5512 5510 5508 5506 5504 5502 5501 5499 5497 5495
5550 5549 5548 5547 5546 5545 5544 5543 5541 5539 5537 5535 5533 5531 5529 5527 5525 5524 5522 5520 5519 5516 5514 5511 5509 5506 5504 5504 5501 5498 5496 5494 5492 5490 5488 5486 5484 5482
5540 5538 5537 5536 5535 5534 5533 5531 5529 5527 5525 5523 5521 5519 5517 5515 5513 5511 5509 5507 5505 5503 5500 5498 5496 5494 5492 5491 5490 5488 5485 5483 5481 5479 5476 5474 5472 5470
5529 5528 5527 5526 5525 5523 5521 5519 5517 5515 5513 5511 5509 5507 5505 5503 5501 5499 5497 5495 5493 5490 5488 5486 5484 5482 5480 5479 5478 5476 5475 5472 5470 5468 5465 5463 5461 5460
5518 5517 5517 5515 5514 5512 5510 5508 5506 5504 5502 5500 5497 5495 5493 5491 5489 5487 5485 5483 5481 5479 5477 5475 5473 5471 5469 5468 5467 5465 5463 5461 5459 5457 5455 5453 5451 5449
5509 5508 5507 5505 5504 5502 5500 5498 5495 5493 5490 5488 5486 5484 5482 5480 5478 5476 5474 5472 5470 5468 5466 5464 5461 5460 5458 5457 5456 5454 5452 5450 5448 5446 5445 5444 5442 5440
5499 5498 5497 5496 5494 5492 5490 5487 5485 5482 5480 5478 5476 5473 5471 5469 5467 5465 5463 5461 5459 5457 5456 5453 5451 5449 5447 5446 5445 5443 5441 5439 5438 5436 5435 5434 5432 5430
5490 5488 5487 5486 5484 5482 5480 5477 5475 5472 5470 5468 5466 5464 5461 5459 5457 5455 5453 5451 5449 5447 5445 5443 5441 5439 5438 5437 5435 5432 5431 5430 5428 5427 5425 5424 5423 5421
5480 5479 5477 5476 5474 5472 5469 5467 5465 5463 5461 5459 5456 5454 5452 5449 5447 5445 5443 5440 5438 5436 5435 5433 5431 5429 5428 5427 5426 5424 5421 5420 5419 5418 5416 5415 5413 5412
5470 5469 5467 5465 5463 5461 5459 5457 5455 5453 5451 5449 5447 5444 5442 5440 5437 5435 5432 5430 5428 5426 5425 5423 5421 5420 5418 5417 5416 5415 5413 5411 5410 5409 5408 5407 5406 5404
5460 5459 5457 5455 5453 5451 5449 5447 5445 5443 5441 5439 5437 5435 5433 5430 5428 5425 5423 5421 5419 5417 5415 5413 5412 5411 5409 5408 5407 5406 5405 5403 5402 5400 5400 5399 5398 5397
5450 5448 5447 5445 5443 5441 5439 5437 5435 5434 5432 5430 5428 5426 5424 5421 5419 5417 5414 5412 5410 5408 5406 5405 5403 5402 5401 5400 5399 5397 5396 5395 5394 5393 5392 5391 5390 5389